Location: Star Dogged Moon Observatory
(29.7756°N, 82.0783°W)
Time: 04:50:04
(UTC-05:00)

Amateur Radio Satellites - All Passes

Search period start: 20 January 2017 04:20
Search period end: 21 January 2017 04:20
Location: Star Dogged Moon Observatory, 29.7756°N, 82.0783°W

Satellite Date Start Highest point End Downlink Frequencies (MHz)
Time Altitude Azimuth
AIST 2 20 Jan 04:33:52 04:36:55 19° 55° (NE) 04:39:58 435.215
CUSAT 1 20 Jan 04:45:17 04:48:35 18° 293° (WNW) 04:52:26 437.405
CUBESAT XI-V 20 Jan 04:55:56 05:00:34 66° 259° (W) 05:05:16 437.345
KKS-1 20 Jan 04:55:59 04:59:41 26° 262° (W) 05:03:23 437.445
AUBIESAT-1 20 Jan 04:57:31 04:59:58 15° 259° (W) 05:02:22 437.475
ISS 20 Jan 05:06:10 05:08:00 14° 36° (NE) 05:09:49 145.825
BRITE-PL 20 Jan 05:08:43 05:13:21 53° 99° (E) 05:17:38 437.365/2234.400
GOMX 1 20 Jan 05:16:00 05:19:08 20° 95° (E) 05:22:11 467.674
DANDE 20 Jan 05:31:45 05:33:58 15° 292° (WNW) 05:36:31 436.750
Cubesat XI-IV 20 Jan 05:38:27 05:41:31 15° 95° (E) 05:44:35 437.490
NOAA 15 20 Jan 05:48:21 05:52:20 21° 96° (E) 05:56:16 137.62
STARS 20 Jan 05:52:13 05:54:20 13° 265° (W) 05:56:27 437.465
AO-7 20 Jan 05:56:30 06:02:04 20° 301° (WNW) 06:07:37 29.400- 29.500
DOVE 4 20 Jan 05:57:11 06:00:18 20° 96° (E) 06:03:25 437.250
HORYU 2 20 Jan 06:01:44 06:06:13 86° 282° (WNW) 06:10:40 437.375
Cosmos 2499 20 Jan 06:10:00 06:14:52 19° 74° (ENE) 06:19:41 435.465 / 435.565
AIST 2 20 Jan 06:11:42 06:15:22 29° 249° (WSW) 06:19:01 435.215
O/OREOS (USA 219) 20 Jan 06:14:51 06:19:15 58° 106° (ESE) 06:23:39 437.305
STRAND 1 20 Jan 06:30:49 06:35:16 32° 71° (ENE) 06:39:45 437.568
CUTE-I 20 Jan 06:33:25 06:38:42 62° 102° (ESE) 06:43:59 437.470
ISS 20 Jan 06:41:32 06:44:36 40° 230° (SW) 06:47:40 145.825
BRITE-PL 20 Jan 06:50:07 06:51:10 11° 295° (WNW) 06:52:12 437.365/2234.400
GOMX 1 20 Jan 06:53:44 06:57:09 23° 289° (WNW) 07:00:26 467.674
GONETS M04 20 Jan 06:57:51 07:06:10 44° 79° (E) 07:14:26
LilacSat-2 20 Jan 07:00:42 07:04:19 39° 285° (WNW) 07:07:56 437.200
SO-50 20 Jan 07:04:15 07:08:09 25° 111° (ESE) 07:12:00 436.795
Cubesat XI-IV 20 Jan 07:16:37 07:21:44 48° 287° (WNW) 07:26:51 437.490
NOAA 18 20 Jan 07:17:29 07:22:58 86° 104° (ESE) 07:28:25 137.9125
CUTE 1.7 + AOD 2 20 Jan 07:18:53 07:22:10 21° 96° (E) 07:25:25 437.475
PHONESAT 2.4 20 Jan 07:20:19 07:22:30 40° 26° (NNE) 07:24:41 2401.200-2431.200
NOAA 15 20 Jan 07:27:18 07:32:05 35° 289° (WNW) 07:36:50 137.62
CINEMA 3 20 Jan 07:27:47 07:31:55 54° 100° (E) 07:36:12 145.822/145.860
DOVE 4 20 Jan 07:34:46 07:37:53 21° 288° (WNW) 07:40:59 437.250
RS-15 20 Jan 07:42:58 07:52:50 27° 44° (NE) 08:02:22 29.354- 29.394
CANX-2 20 Jan 07:47:13 07:51:28 60° 100° (E) 07:55:41 2200.000
HO-68 20 Jan 07:52:58 08:00:02 59° 102° (ESE) 08:07:03 435.675
SEEDS 20 Jan 07:59:11 08:03:14 43° 99° (E) 08:07:15 437.485
Cosmos 2499 20 Jan 08:01:26 08:08:14 52° 269° (W) 08:15:04 435.465 / 435.565
COMPASS 1 20 Jan 08:05:28 08:09:15 32° 98° (E) 08:12:58 437.405
STRAND 1 20 Jan 08:10:33 08:14:24 22° 264° (W) 08:18:16 437.568
CUTE-I 20 Jan 08:15:53 08:18:09 13° 295° (WNW) 08:20:25 437.470
AAUSAT CUBESAT 2 20 Jan 08:17:06 08:20:52 33° 98° (E) 08:24:37 437.432
Oscar 11 20 Jan 08:17:20 08:18:20 11° 93° (E) 08:19:21 145.826/435.025
CUBEBUG 2 20 Jan 08:24:44 08:29:02 55° 100° (E) 08:33:28 437.445
PRISM 20 Jan 08:43:14 08:47:05 37° 74° (ENE) 08:50:56 437.425
SO-50 20 Jan 08:44:29 08:48:29 26° 303° (WNW) 08:52:26 436.795
FUNcube-1 20 Jan 08:50:38 08:54:40 34° 98° (E) 08:58:45 145.935
UWE-3 20 Jan 08:53:46 08:58:11 76° 101° (E) 09:02:42 435.000/436.395/437.385
CUTE 1.7 + AOD 2 20 Jan 08:54:29 08:57:52 23° 288° (WNW) 09:01:14 437.475
GONETS M04 20 Jan 08:55:06 09:02:36 32° 274° (W) 09:10:06
PHONESAT 2.4 20 Jan 08:55:40 08:56:22 11° 219° (SW) 08:57:02 2401.200-2431.200
UNISAT 6 20 Jan 09:02:54 09:05:35 16° 70° (ENE) 09:08:14 437.425
ZACube-1 20 Jan 09:13:13 09:17:38 74° 101° (E) 09:22:09 437.345
TIGRISAT 20 Jan 09:15:42 09:18:56 22° 72° (ENE) 09:22:11 435.000
HUMSAT D 20 Jan 09:28:46 09:30:45 13° 94° (E) 09:32:45 437.325/437.525
PCSat 20 Jan 09:29:33 09:32:34 15° 54° (NE) 09:35:34 145.827
ANTELSAT 20 Jan 09:30:09 09:34:02 35° 74° (ENE) 09:37:54 437.575/2403.000
DELFI C3 20 Jan 09:36:45 09:40:19 31° 98° (E) 09:43:51 145.870
SEEDS 20 Jan 09:37:08 09:38:28 11° 292° (WNW) 09:39:47 437.485
COMPASS 1 20 Jan 09:42:05 09:44:27 15° 290° (WNW) 09:46:49 437.405
HO-68 20 Jan 09:42:05 09:47:08 21° 297° (WNW) 09:52:11 435.675
Oscar 11 20 Jan 09:50:27 09:54:37 45° 285° (WNW) 09:58:46 145.826/435.025
AAUSAT CUBESAT 2 20 Jan 09:53:46 09:55:59 14° 290° (WNW) 09:58:12 437.432
RS-15 20 Jan 09:54:26 10:06:44 82° 246° (WSW) 10:18:25 29.354- 29.394
PRISM 20 Jan 10:20:47 10:22:26 12° 266° (W) 10:24:06 437.425
FUNcube-1 20 Jan 10:27:54 10:30:35 16° 290° (WNW) 10:33:17 145.935
JAS-2 20 Jan 10:30:43 10:35:44 50° 73° (ENE) 10:41:07 435.910
QB50P1 20 Jan 10:33:40 10:36:06 15° 70° (ENE) 10:38:32 145.935-145.965
POLYITAN 1 20 Jan 10:37:25 10:40:10 17° 70° (ENE) 10:42:54 437.675
UNISAT 6 20 Jan 10:38:17 10:42:01 29° 262° (W) 10:45:45 437.425
QB50P2 20 Jan 10:38:24 10:41:22 19° 71° (ENE) 10:44:21 145.880/145.840
TIGRISAT 20 Jan 10:52:11 10:55:29 22° 263° (W) 10:58:46 435.000
POPSAT HIP 1 20 Jan 10:59:09 11:02:50 31° 73° (ENE) 11:06:32 437.405
HUMSAT D 20 Jan 11:02:27 11:06:25 37° 286° (WNW) 11:10:22 437.325/437.525
BY70-1 20 Jan 11:04:00 11:07:03 39° 99° (E) 11:09:52 436.1900
ANTELSAT 20 Jan 11:08:45 11:10:47 13° 265° (W) 11:12:50 437.575/2403.000
DUCHIFAT 1 20 Jan 11:10:04 11:13:52 36° 74° (ENE) 11:17:41 145.980
PCSat 20 Jan 11:10:59 11:16:20 61° 249° (WSW) 11:21:39 145.827
DELFI C3 20 Jan 11:12:51 11:14:47 13° 290° (WNW) 11:16:42 145.870
NANOSAT C BR1 20 Jan 11:15:17 11:19:18 47° 75° (ENE) 11:23:18 145.865
CUBEBUG 1 20 Jan 11:15:50 11:18:16 15° 95° (E) 11:20:39 437.445
AISAT 20 Jan 11:31:52 11:34:12 14° 95° (E) 11:36:31 437.250
BUGSAT 1 20 Jan 11:45:35 11:49:12 31° 73° (ENE) 11:52:46 437.445
50 SAT 20 Jan 11:47:01 11:48:27 12° 95° (E) 11:49:52 437.505
ESTCUBE 1 20 Jan 11:51:27 11:56:00 81° 101° (E) 12:00:29 437.505/2401.250
VELOX 1 20 Jan 12:03:48 12:07:47 33° 98° (E) 12:11:44 145.980
JUGNU 20 Jan 12:06:50 12:08:54 12° 161° (SSE) 12:10:57 437.505
QB50P1 20 Jan 12:07:50 12:11:33 31° 262° (W) 12:15:17 145.935-145.965
RS-15 20 Jan 12:11:41 12:17:13 14° 262° (W) 12:22:43 29.354- 29.394
POLYITAN 1 20 Jan 12:12:07 12:15:41 27° 262° (W) 12:19:16 437.675
QB50P2 20 Jan 12:13:31 12:16:57 24° 263° (W) 12:20:24 145.880/145.840
JAS-2 20 Jan 12:18:44 12:21:12 13° 268° (W) 12:23:45 435.910
SPROUT 20 Jan 12:33:19 12:37:31 58° 100° (E) 12:41:42 437.525
UKube-1 20 Jan 12:36:05 12:39:38 25° 98° (E) 12:43:09 .
POPSAT HIP 1 20 Jan 12:36:14 12:38:37 15° 265° (W) 12:40:59 437.405
DX 1 20 Jan 12:36:20 12:40:20 36° 99° (E) 12:44:19 434.975-435.025
Oscar 19 20 Jan 12:37:34 12:42:11 33° 72° (ENE) 12:46:49 437.125/150
DUCHIFAT 1 20 Jan 12:47:49 12:49:36 12° 265° (W) 12:51:23 145.980
AO-85 20 Jan 12:47:55 12:51:22 19° 110° (ESE) 12:54:39 145.980
CUBEBUG 1 20 Jan 12:50:41 12:54:33 33° 287° (WNW) 12:58:24 437.445
Gurwin Techsat 1B 20 Jan 12:51:22 12:55:29 24° 69° (ENE) 12:59:38 435.225
AISAT 20 Jan 13:06:43 13:10:42 35° 287° (WNW) 13:14:40 437.250
Cosmos 2491 20 Jan 13:09:17 13:17:32 43° 79° (E) 13:25:46 435.465 / 435.565
YUBILEINY 20 Jan 13:10:21 13:16:18 21° 83° (E) 13:22:15 435.215
50 SAT 20 Jan 13:18:40 13:21:38 25° 287° (WNW) 13:24:34 437.505
BUGSAT 1 20 Jan 13:22:26 13:24:33 14° 265° (W) 13:26:39 437.445
CUSAT 1 20 Jan 13:41:13 13:47:49 28° 73° (ENE) 13:53:50 437.405
VELOX 1 20 Jan 13:41:19 13:43:54 16° 291° (WNW) 13:46:29 145.980
JUGNU 20 Jan 13:52:44 13:57:19 24° 169° (SSE) 14:01:57 437.505
TISAT 1 20 Jan 14:01:31 14:05:42 84° 104° (ESE) 14:09:52 437.305
ITUPSAT 1 20 Jan 14:07:07 14:09:40 14° 95° (E) 14:12:12 437.325
UKube-1 20 Jan 14:12:19 14:15:27 20° 290° (WNW) 14:18:34 .
DX 1 20 Jan 14:13:53 14:16:09 14° 292° (WNW) 14:18:25 434.975-435.025
Oscar 19 20 Jan 14:17:34 14:21:28 21° 264° (W) 14:25:24 437.125/150
Cosmos 2504 20 Jan 14:24:25 14:32:15 38° 88° (E) 14:39:44 435.465 / 435.565
AO-85 20 Jan 14:27:10 14:31:34 34° 300° (WNW) 14:35:41 145.980
AIST 1 20 Jan 14:27:54 14:32:12 57° 277° (W) 14:36:30
DANDE 20 Jan 14:29:39 14:36:11 26° 74° (ENE) 14:42:49 436.750
Gurwin Techsat 1B 20 Jan 14:30:30 14:35:12 32° 262° (W) 14:39:56 435.225
BEESAT 20 Jan 14:40:09 14:44:33 36° 99° (E) 14:48:56 436.000
SWISSCUBE 20 Jan 14:41:40 14:46:13 43° 99° (E) 14:50:45 437.505
AO-7 20 Jan 14:53:49 15:01:57 60° 69° (ENE) 15:10:08 29.400- 29.500
ITAMSAT 1 20 Jan 14:58:53 15:04:02 86° 76° (ENE) 15:09:14 435.822/435.867
YUBILEINY 20 Jan 15:03:31 15:12:13 65° 278° (W) 15:21:00 435.215
Cosmos 2491 20 Jan 15:06:32 15:13:59 32° 274° (W) 15:21:30 435.465 / 435.565
CUSAT 1 20 Jan 15:22:25 15:29:56 49° 269° (W) 15:36:36 437.405
SRMSAT 20 Jan 15:22:40 15:26:30 17° 164° (SSE) 15:30:21 437.500
JUGNU 20 Jan 15:40:43 15:45:52 31° 178° (S) 15:51:03 437.505
BEESAT 3 20 Jan 15:41:15 15:44:45 34° 112° (ESE) 15:48:18 437.485
ITUPSAT 1 20 Jan 15:43:03 15:47:36 43° 286° (WNW) 15:52:07 437.325
M-CUBED/EXP-1 PRIME 20 Jan 16:03:50 16:06:26 22° 102° (ESE) 16:09:00 437.505
DANDE 20 Jan 16:11:12 16:19:08 59° 267° (W) 16:27:09 436.750
STARS 20 Jan 16:11:32 16:12:42 11° 94° (E) 16:13:53 437.465
BRITE-PL 20 Jan 16:11:59 16:17:09 37° 73° (ENE) 16:22:19 437.365/2234.400
MOZHAYETS 4 20 Jan 16:12:36 16:17:13 68° 284° (WNW) 16:21:49
Cosmos 2504 20 Jan 16:17:31 16:25:26 38° 281° (W) 16:33:03 435.465 / 435.565
GOMX 1 20 Jan 16:18:03 16:21:13 16° 69° (ENE) 16:24:20 467.674
BEESAT 20 Jan 16:18:51 16:21:59 18° 292° (WNW) 16:25:08 436.000
SWISSCUBE 20 Jan 16:20:54 16:23:35 15° 292° (WNW) 16:26:16 437.505
BEESAT 2 20 Jan 16:25:49 16:29:34 47° 113° (ESE) 16:33:23 435.950
O/OREOS (USA 219) 20 Jan 16:30:51 16:35:07 41° 69° (ENE) 16:39:23 437.305
AUBIESAT-1 20 Jan 16:39:51 16:43:08 63° 106° (ESE) 16:46:23 437.475
AO-7 20 Jan 16:48:42 16:54:59 23° 263° (W) 17:01:19 29.400- 29.500
KKS-1 20 Jan 16:51:54 16:56:20 85° 283° (WNW) 17:00:44 437.445
HORYU 2 20 Jan 16:53:47 16:57:53 39° 73° (ENE) 17:01:59 437.375
Cubesat XI-IV 20 Jan 16:55:14 16:58:05 15° 66° (ENE) 17:00:57 437.490
DOVE 4 20 Jan 16:57:25 17:00:00 14° 69° (ENE) 17:02:31 437.250
CUBESAT XI-V 20 Jan 16:58:33 17:03:05 49° 100° (E) 17:07:34 437.345
NOAA 15 20 Jan 17:02:58 17:06:38 19° 68° (ENE) 17:10:20 137.62
SRMSAT 20 Jan 17:10:05 17:15:10 29° 173° (S) 17:20:15 437.500
BEESAT 3 20 Jan 17:20:23 17:22:26 14° 306° (NW) 17:24:31 437.485
SO-50 20 Jan 17:20:46 17:25:09 52° 61° (ENE) 17:29:29 436.795
JUGNU 20 Jan 17:29:31 17:34:26 27° 188° (S) 17:39:23 437.505
LilacSat-2 20 Jan 17:36:28 17:39:56 36° 75° (ENE) 17:43:26 437.200
M-CUBED/EXP-1 PRIME 20 Jan 17:39:24 17:40:42 12° 294° (WNW) 17:41:58 437.505
STARS 20 Jan 17:45:02 17:49:11 45° 286° (WNW) 17:53:20 437.465
CUTE-I 20 Jan 17:49:14 17:54:24 56° 74° (ENE) 17:59:35 437.470
BRITE-PL 20 Jan 17:51:07 17:55:33 24° 265° (W) 18:00:02 437.365/2234.400
GOMX 1 20 Jan 17:53:32 17:58:51 51° 260° (W) 18:04:00 467.674
BEESAT 2 20 Jan 18:06:33 18:07:35 11° 308° (NW) 18:08:37 435.950
O/OREOS (USA 219) 20 Jan 18:12:09 18:14:04 13° 261° (W) 18:16:00 437.305
HO-68 20 Jan 18:16:17 18:21:44 24° 65° (ENE) 18:27:11 435.675
CINEMA 3 20 Jan 18:24:00 18:27:38 25° 73° (ENE) 18:31:09 145.822/145.860
AIST 2 20 Jan 18:26:18 18:28:41 15° 108° (ESE) 18:31:04 435.215
DOVE 4 20 Jan 18:32:20 18:37:17 49° 260° (W) 18:42:00 437.250
Cubesat XI-IV 20 Jan 18:32:28 18:37:39 53° 260° (W) 18:42:50 437.490
HORYU 2 20 Jan 18:32:33 18:34:30 13° 265° (W) 18:36:29 437.375
CANX-2 20 Jan 18:34:49 18:37:51 20° 71° (ENE) 18:40:55 2200.000
NOAA 18 20 Jan 18:37:40 18:43:11 90° 252° (WSW) 18:48:43 137.9125
CUBESAT XI-V 20 Jan 18:38:04 18:39:58 12° 292° (WNW) 18:41:51 437.345
Cosmos 2499 20 Jan 18:38:54 18:45:01 22° 86° (E) 18:50:51 435.465 / 435.565
NOAA 15 20 Jan 18:41:08 18:46:03 40° 261° (W) 18:51:01 137.62
SEEDS 20 Jan 18:46:22 18:48:38 14° 70° (ENE) 18:50:56 437.485
STRAND 1 20 Jan 18:48:01 18:51:29 18° 95° (E) 18:54:56 437.568
COMPASS 1 20 Jan 18:53:15 18:53:47 10° 68° (ENE) 18:54:21 437.405
SRMSAT 20 Jan 18:58:41 19:03:56 31° 183° (S) 19:09:09 437.500
AAUSAT CUBESAT 2 20 Jan 19:04:10 19:04:53 10° 68° (ENE) 19:05:36 437.432
SO-50 20 Jan 19:04:18 19:05:05 10° 253° (WSW) 19:05:50 436.795
CUBEBUG 2 20 Jan 19:17:58 19:21:04 20° 72° (ENE) 19:24:09 437.445
JUGNU 20 Jan 19:19:30 19:22:55 16° 197° (SSW) 19:26:22 437.505
CUTE-I 20 Jan 19:32:20 19:34:40 13° 266° (W) 19:37:01 437.470
CUTE 1.7 + AOD 2 20 Jan 19:39:53 19:44:06 71° 260° (W) 19:48:21 437.475
FUNcube-1 20 Jan 19:42:36 19:44:07 12° 69° (ENE) 19:45:37 145.935
UWE-3 20 Jan 19:45:29 19:48:57 26° 73° (ENE) 19:52:26 435.000/436.395/437.385
GONETS M04 20 Jan 19:50:50 19:59:18 61° 91° (E) 20:07:50
CINEMA 3 20 Jan 20:01:16 20:04:39 21° 263° (W) 20:07:57 145.822/145.860
HO-68 20 Jan 20:01:59 20:08:57 53° 258° (WSW) 20:15:57 435.675
AIST 2 20 Jan 20:03:09 20:06:49 32° 301° (WNW) 20:10:33 435.215
ZACube-1 20 Jan 20:03:47 20:07:09 25° 72° (ENE) 20:10:32 437.345
CANX-2 20 Jan 20:10:02 20:13:29 24° 263° (W) 20:16:59 2200.000
SEEDS 20 Jan 20:20:11 20:23:58 33° 262° (W) 20:27:50 437.485
COMPASS 1 20 Jan 20:24:50 20:28:50 47° 260° (W) 20:32:54 437.405
STRAND 1 20 Jan 20:25:57 20:30:42 39° 288° (WNW) 20:35:26 437.568
Cosmos 2499 20 Jan 20:29:08 20:37:34 59° 278° (W) 20:45:28 435.465 / 435.565
AAUSAT CUBESAT 2 20 Jan 20:35:53 20:39:52 45° 261° (W) 20:43:53 437.432
Oscar 11 20 Jan 20:38:40 20:42:53 60° 77° (ENE) 20:47:10 145.826/435.025
SRMSAT 20 Jan 20:48:03 20:52:38 23° 193° (SSW) 20:57:13 437.500
CUBEBUG 2 20 Jan 20:54:16 20:57:32 22° 263° (W) 21:00:46 437.445
FUNcube-1 20 Jan 21:16:07 21:19:56 38° 261° (W) 21:23:48 145.935
UWE-3 20 Jan 21:22:42 21:25:22 17° 265° (W) 21:28:02 435.000/436.395/437.385
ANTELSAT 20 Jan 21:29:01 21:31:00 13° 94° (E) 21:33:00 437.575/2403.000
ISS 20 Jan 21:40:28 21:43:42 77° 314° (NW) 21:46:57 145.825
ZACube-1 20 Jan 21:40:35 21:43:22 18° 265° (W) 21:46:10 437.345
HUMSAT D 20 Jan 21:47:06 21:51:07 64° 76° (ENE) 21:55:12 437.325/437.525
JAS-2 20 Jan 21:48:15 21:50:45 12° 92° (E) 21:53:16 435.910
GONETS M04 20 Jan 21:50:06 21:56:31 23° 287° (WNW) 22:03:00
DELFI C3 20 Jan 21:50:14 21:54:08 52° 260° (W) 21:58:03 145.870
RS-15 20 Jan 21:59:47 22:08:38 26° 102° (ESE) 22:17:43 29.354- 29.394
PRISM 20 Jan 22:05:23 22:09:23 53° 285° (WNW) 22:13:20 437.425
UNISAT 6 20 Jan 22:34:45 22:39:14 86° 102° (ESE) 22:43:49 437.425
SRMSAT 20 Jan 22:40:00 22:41:14 11° 200° (SSW) 22:42:29 437.500
BY70-1 20 Jan 22:42:24 22:45:13 68° 77° (ENE) 22:48:18 436.1900
ESTCUBE 1 20 Jan 22:45:01 22:49:06 34° 73° (ENE) 22:53:12 437.505/2401.250
TIGRISAT 20 Jan 22:48:01 22:52:27 71° 284° (WNW) 22:57:00 435.000
VELOX 1 20 Jan 22:56:24 22:58:57 15° 69° (ENE) 23:01:30 145.980
ANTELSAT 20 Jan 23:03:33 23:07:47 42° 285° (WNW) 23:12:05 437.575/2403.000
AO-85 20 Jan 23:04:12 23:07:43 32° 59° (ENE) 23:11:16 145.980
NANOSAT C BR1 20 Jan 23:07:24 23:09:06 12° 94° (E) 23:10:50 145.865
SPROUT 20 Jan 23:21:33 23:24:41 20° 71° (ENE) 23:27:49 437.525
DX 1 20 Jan 23:27:10 23:29:45 16° 69° (ENE) 23:32:21 434.975-435.025
UKube-1 20 Jan 23:27:37 23:28:12 10° 67° (ENE) 23:28:47 .
JAS-2 20 Jan 23:28:43 23:36:11 85° 102° (ESE) 23:44:04 435.910
CUBEBUG 1 20 Jan 23:39:41 23:44:07 90° 351° (N) 23:48:32 437.445
50 SAT 20 Jan 23:46:43 23:50:05 41° 75° (ENE) 23:53:28 437.505
AISAT 20 Jan 23:57:11 00:01:38 89° 244° (WSW) 00:06:06 437.250
QB50P1 20 Jan 23:57:45 00:01:56 63° 101° (ESE) 00:06:07 145.935-145.965
POLYITAN 1 21 Jan 00:02:00 00:06:15 73° 102° (ESE) 00:10:29 437.675
QB50P2 21 Jan 00:03:16 00:07:31 83° 104° (ESE) 00:11:45 145.880/145.840
PCSat 21 Jan 00:03:27 00:08:29 41° 109° (ESE) 00:13:32 145.827
RS-15 21 Jan 00:08:12 00:19:52 72° 299° (WNW) 00:32:10 29.354- 29.394
ESTCUBE 1 21 Jan 00:23:11 00:25:55 16° 265° (W) 00:28:40 437.505/2401.250
POPSAT HIP 1 21 Jan 00:24:45 00:28:54 57° 284° (WNW) 00:33:03 437.405
VELOX 1 21 Jan 00:30:58 00:35:03 36° 261° (W) 00:39:09 145.980
DUCHIFAT 1 21 Jan 00:35:04 00:39:08 49° 285° (WNW) 00:43:11 145.980
NANOSAT C BR1 21 Jan 00:41:00 00:44:54 37° 286° (WNW) 00:48:47 145.865
AIST 1 21 Jan 00:42:05 00:45:02 18° 77° (ENE) 00:47:59
AO-85 21 Jan 00:46:00 00:47:46 13° 251° (WSW) 00:49:32 145.980
TISAT 1 21 Jan 00:47:29 00:50:59 26° 72° (ENE) 00:54:28 437.305
PHONESAT 2.4 21 Jan 00:55:31 00:57:48 84° 145° (SE) 01:00:05 2401.200-2431.200
Oscar 19 21 Jan 00:55:54 00:59:33 19° 96° (E) 01:03:08 437.125/150
SPROUT 21 Jan 00:56:59 01:00:25 24° 263° (W) 01:03:51 437.525
UKube-1 21 Jan 00:59:32 01:03:43 51° 259° (W) 01:07:56 .
DX 1 21 Jan 01:01:39 01:05:36 33° 261° (W) 01:09:35 434.975-435.025
BUGSAT 1 21 Jan 01:07:44 01:11:43 61° 284° (WNW) 01:15:44 437.445
Gurwin Techsat 1B 21 Jan 01:14:22 01:17:18 15° 94° (E) 01:20:13 435.225
JAS-2 21 Jan 01:16:16 01:20:23 16° 296° (WNW) 01:24:39 435.910
YUBILEINY 21 Jan 01:21:26 01:29:53 49° 80° (E) 01:38:13 435.215
BEESAT 3 21 Jan 01:40:38 01:44:30 49° 61° (ENE) 01:48:22 437.485
BEESAT 21 Jan 01:41:18 01:44:52 21° 70° (ENE) 01:48:25 436.000
SWISSCUBE 21 Jan 01:42:39 01:46:30 25° 71° (ENE) 01:50:22 437.505
PCSat 21 Jan 01:47:59 01:51:58 21° 303° (WNW) 01:56:00 145.827
Cosmos 2491 21 Jan 02:02:24 02:10:54 60° 91° (E) 02:19:23 435.465 / 435.565
Cosmos 2504 21 Jan 02:17:12 02:24:21 57° 82° (E) 02:31:20 435.465 / 435.565
AIST 1 21 Jan 02:19:07 02:22:31 23° 270° (W) 02:25:53
TISAT 1 21 Jan 02:23:46 02:26:32 17° 264° (W) 02:29:19 437.305
BEESAT 2 21 Jan 02:26:25 02:30:28 70° 64° (ENE) 02:34:27 435.950
RS-15 21 Jan 02:27:12 02:34:58 19° 323° (NW) 02:42:56 29.354- 29.394
PHONESAT 2.4 21 Jan 02:31:02 02:32:04 12° 343° (NNW) 02:33:06 2401.200-2431.200
Oscar 19 21 Jan 02:34:11 02:38:52 36° 288° (WNW) 02:43:32 437.125/150
CUSAT 1 21 Jan 02:35:54 02:39:44 25° 85° (E) 02:44:24 437.405
ITUPSAT 1 21 Jan 02:43:17 02:48:02 75° 258° (WSW) 02:52:48 437.325
M-CUBED/EXP-1 PRIME 21 Jan 02:44:28 02:47:06 16° 66° (ENE) 02:49:38 437.505
Gurwin Techsat 1B 21 Jan 02:52:18 02:57:25 49° 287° (WNW) 03:02:30 435.225
AO-7 21 Jan 03:03:09 03:10:04 28° 98° (E) 03:16:55 29.400- 29.500
MOZHAYETS 4 21 Jan 03:08:11 03:12:37 54° 75° (ENE) 03:17:05
ITAMSAT 1 21 Jan 03:17:52 03:22:56 51° 101° (E) 03:27:59 435.822/435.867
BEESAT 21 Jan 03:18:19 03:22:24 29° 262° (W) 03:26:30 436.000
YUBILEINY 21 Jan 03:19:03 03:26:08 28° 275° (W) 03:33:12 435.215
AUBIESAT-1 21 Jan 03:19:19 03:23:11 31° 70° (ENE) 03:26:50 437.475
SWISSCUBE 21 Jan 03:20:19 03:24:09 24° 263° (W) 03:27:59 437.505
DANDE 21 Jan 03:33:32 03:35:47 16° 84° (E) 03:38:24 436.750
KKS-1 21 Jan 03:43:53 03:48:03 40° 73° (ENE) 03:52:12 437.445
CUBESAT XI-V 21 Jan 03:56:15 04:00:00 24° 71° (ENE) 04:03:48 437.345
Cosmos 2491 21 Jan 04:01:41 04:08:06 23° 287° (WNW) 04:14:35 435.465 / 435.565
